Location: The Saddle
(36.8333°N, 80.3417°W)
Time: 20:21:54
(UTC-05:00)

A-11 Canister half - Pass Details

Date: 09 December 2023
Orbit: 1512 x 1687 km, 47.2° (Epoch: 26 February)

Event Time Altitude Azimuth Distance (km) Brightness Sun altitude
Rises 22:48:10 0° 233° (SW) 4,667 - -66.9°
Reaches altitude 10° 22:51:10 10° 233° (SW) 3,702 - -67.4°
Maximum altitude 23:00:34 87° 145° (SE) 1,577 - -68.9°
Drops below altitude 10° 23:10:22 10° 58° (ENE) 3,846 - -70.4°
Sets 23:13:32 0° 58° (ENE) 4,857 - -70.9°
